Вернуться в каталог

FORMOSAT-7R/TRITON

АктивенПогодаSSO
NORAD 58017·PAYLOAD·🇹🇼 Taiwan

Запущен Oct 9, 2023 с Guiana Space Centre

Loading…

Ближайшие Пролёты (ближайшие 24 часа)

TLE

СвежийSource: Space-Track

Эпоха: Sep 14, 2026, 22:50 UTC

1 58017U 23155B   26257.95196769  .00001058  00000-0  11181-3 0  9990
2 58017  97.8305 338.7046 0002365 115.2847 244.8616 14.91335261159607

Отслеживайте FORMOSAT-7R/TRITON в реальном времени с AllMySat

Download on the App Store